DAL449 KLAX-KBNA

Flight info

Callsign DAL449
Flight time N/A
Altitude 35000
Route DOTSS2 CLEEE PKE J96 LANCY KEYKE INW KA36Y TUL LOPPY CHSNE3
Aircraft A321/M-SDE3FGHIRWY/LB1

Departure

Time N/A
Airport Los Angeles International Airport (KLAX)

Arrival

Time 2026-05-05 17:20
Airport Nashville International Airport (KBNA)
Time Latitude Longitude Altitude Speed Heading
2026-05-05 17:02 35.76200 -87.73033 19177 ft 412 kts 89°
2026-05-05 17:02 35.76326 -87.69546 18927 ft 404 kts 83°
2026-05-05 17:02 35.76854 -87.66157 18781 ft 403 kts 73°
2026-05-05 17:03 35.77775 -87.62915 18385 ft 399 kts 68°
2026-05-05 17:03 35.78766 -87.59732 17998 ft 396 kts 68°
2026-05-05 17:03 35.79753 -87.56579 17636 ft 393 kts 68°
2026-05-05 17:03 35.80738 -87.53446 17275 ft 391 kts 68°
2026-05-05 17:04 35.81712 -87.50341 16901 ft 388 kts 68°
2026-05-05 17:04 35.82678 -87.47246 16527 ft 386 kts 68°
2026-05-05 17:04 35.83684 -87.44194 16178 ft 383 kts 66°
2026-05-05 17:04 35.84736 -87.41184 15818 ft 380 kts 65°
2026-05-05 17:05 35.85801 -87.38210 15462 ft 378 kts 65°
2026-05-05 17:05 35.86864 -87.35259 15108 ft 376 kts 65°
2026-05-05 17:05 35.87920 -87.32320 14747 ft 373 kts 65°
2026-05-05 17:05 35.88959 -87.29396 14396 ft 371 kts 66°
2026-05-05 17:06 35.89982 -87.26485 14046 ft 369 kts 66°
2026-05-05 17:06 35.90995 -87.23587 13685 ft 367 kts 66°
2026-05-05 17:06 35.92003 -87.20702 13322 ft 365 kts 66°
2026-05-05 17:06 35.93007 -87.17834 12980 ft 364 kts 67°
2026-05-05 17:07 35.94011 -87.14970 12637 ft 363 kts 67°
2026-05-05 17:07 35.95010 -87.12116 12298 ft 362 kts 67°
2026-05-05 17:07 35.95999 -87.09273 11955 ft 360 kts 68°
2026-05-05 17:07 35.96983 -87.06434 11617 ft 359 kts 68°
2026-05-05 17:08 35.97959 -87.03608 11285 ft 357 kts 68°
2026-05-05 17:08 35.98935 -87.00798 11003 ft 352 kts 68°
2026-05-05 17:08 35.99885 -86.98070 10878 ft 340 kts 68°
2026-05-05 17:08 36.00805 -86.95426 10757 ft 330 kts 68°
2026-05-05 17:09 36.01699 -86.92852 10547 ft 323 kts 69°
2026-05-05 17:09 36.02586 -86.90297 10146 ft 324 kts 69°
2026-05-05 17:09 36.03470 -86.87753 9735 ft 324 kts 69°
2026-05-05 17:09 36.04365 -86.85209 9481 ft 319 kts 65°
2026-05-05 17:10 36.05609 -86.82988 9346 ft 310 kts 46°
2026-05-05 17:10 36.06677 -86.81847 9263 ft 303 kts 33°
2026-05-05 17:10 36.09145 -86.80446 8899 ft 294 kts 14°
2026-05-05 17:10 36.11096 -86.79696 8595 ft 291 kts 15°
2026-05-05 17:11 36.13013 -86.78954 8290 ft 287 kts 15°
2026-05-05 17:11 36.14292 -86.78457 8145 ft 283 kts 15°
2026-05-05 17:11 36.16140 -86.77737 7998 ft 276 kts 15°
2026-05-05 17:11 36.18010 -86.77027 7368 ft 288 kts 14°
2026-05-05 17:12 36.19939 -86.76314 6964 ft 283 kts 14°
2026-05-05 17:12 36.21763 -86.75640 6769 ft 266 kts 14°
2026-05-05 17:12 36.23509 -86.74992 6512 ft 259 kts 14°
2026-05-05 17:12 36.25228 -86.74353 6166 ft 257 kts 14°
2026-05-05 17:13 36.26933 -86.73718 5844 ft 255 kts 13°
2026-05-05 17:13 36.28629 -86.73087 5513 ft 254 kts 14°
2026-05-05 17:13 36.30315 -86.72459 5148 ft 252 kts 13°
2026-05-05 17:13 36.31985 -86.71837 4779 ft 249 kts 13°
2026-05-05 17:14 36.33648 -86.71216 4413 ft 249 kts 12°
2026-05-05 17:14 36.35305 -86.70599 4064 ft 248 kts 12°
2026-05-05 17:14 36.36895 -86.69811 3725 ft 250 kts 32°
2026-05-05 17:14 36.38004 -86.68202 3489 ft 246 kts 65°
2026-05-05 17:15 36.38291 -86.66160 3214 ft 240 kts 99°
2026-05-05 17:15 36.37852 -86.64187 3025 ft 236 kts 114°
2026-05-05 17:15 36.37108 -86.62439 3020 ft 226 kts 133°
2026-05-05 17:15 36.35967 -86.61161 3023 ft 218 kts 154°
2026-05-05 17:16 36.34615 -86.60461 3035 ft 210 kts 173°
2026-05-05 17:16 36.33190 -86.60343 3029 ft 203 kts 191°
2026-05-05 17:16 36.31829 -86.60754 3029 ft 201 kts 201°
2026-05-05 17:16 36.30495 -86.61281 3027 ft 202 kts 202°
2026-05-05 17:17 36.29155 -86.61810 3023 ft 202 kts 200°
2026-05-05 17:17 36.27822 -86.62336 3028 ft 201 kts 201°
2026-05-05 17:17 36.26493 -86.62859 3020 ft 200 kts 201°
2026-05-05 17:17 36.25165 -86.63381 2848 ft 199 kts 201°
2026-05-05 17:18 36.23844 -86.63902 2620 ft 200 kts 200°
2026-05-05 17:18 36.22518 -86.64423 2364 ft 200 kts 199°
2026-05-05 17:18 36.21210 -86.64938 2121 ft 192 kts 200°
2026-05-05 17:18 36.19977 -86.65421 1866 ft 180 kts 198°
2026-05-05 17:19 36.18862 -86.65857 1660 ft 156 kts 201°
2026-05-05 17:19 36.17851 -86.66256 1445 ft 149 kts 199°
2026-05-05 17:19 36.16876 -86.66640 1242 ft 149 kts 200°
2026-05-05 17:19 36.15893 -86.67027 1057 ft 148 kts 199°
2026-05-05 17:20 36.14915 -86.67411 853 ft 146 kts 199°
2026-05-05 17:20 36.13941 -86.67793 659 ft 148 kts 198°
2026-05-05 17:20 36.12999 -86.68164 579 ft 121 kts 198°
2026-05-05 17:20 36.12412 -86.68394 584 ft 48 kts 198°
2026-05-05 17:21 36.12224 -86.68390 586 ft 25 kts 150°
2026-05-05 17:21 36.12160 -86.68306 587 ft 4 kts 52°
2026-05-05 17:21 36.12205 -86.68275 586 ft 12 kts 15°
2026-05-05 17:22 36.12463 -86.68190 582 ft 23 kts 16°
2026-05-05 17:22 36.12616 -86.68132 579 ft 23 kts 17°
2026-05-05 17:22 36.12749 -86.68046 578 ft 20 kts 68°
2026-05-05 17:22 36.12745 -86.67828 576 ft 36 kts 95°
2026-05-05 17:23 36.12720 -86.67505 578 ft 36 kts 91°
2026-05-05 17:23 36.12810 -86.67326 578 ft 25 kts 43°
2026-05-05 17:23 36.12890 -86.67170 568 ft 20 kts 87°
2026-05-05 17:23 36.12891 -86.67132 567 ft 0 kts 88°